date,time,DOY,Ta_1_1_1,RH_1_1_1,LWin_1_1_1,LWout_1_1_1,SWin_1_1_1,SWout_1_1_1,PPFD_1_1_1,SWC_1_1_1,Ts_1_1_1
[yyyy-mm-dd],[HH:MM],[ddd.ddd],[K],[%],[W+1m-2],[W+1m-2],[W+1m-2],[W+1m-2],[µmol+1m-2s-1],[m+3m-3],[K]
2012-10-02,00:30,276.020,282.15862068965521,91.500000000000014,-8.9351724137931043,-9999.0,0.37620689655172407,-4.2427586206896555,3.79310344827586167E-003,-9999.0,279.90999999999991
2012-10-02,01:00,276.041,281.61166666666668,93.529333333333327,-9.0093333333333305,-9999.0,0.34300000000000003,-4.2849999999999993,7.33333333333333493E-003,-9999.0,279.90999999999991
2012-10-02,01:30,276.062,281.39033333333333,94.617333333333349,-8.3316666666666670,-9999.0,0.56133333333333335,-4.0209999999999999,6.00000000000000099E-003,-9999.0,279.90999999999991
2012-10-02,02:00,276.083,281.15833333333336,95.014666666666685,-8.9759999999999991,-9999.0,0.41400000000000003,-4.3083333333333327,2.66666666666666658E-003,-9999.0,279.90999999999991
2012-10-02,02:30,276.104,280.91333333333330,96.943999999999988,-8.6393333333333331,-9999.0,0.44099999999999989,-3.8993333333333329,6.00000000000000186E-003,-9999.0,279.90999999999991
2012-10-02,03:00,276.124,280.72500000000002,96.982999999999976,-7.8316666666666661,-9999.0,0.50533333333333330,-3.9206666666666674,5.00000000000000010E-003,-9999.0,279.90999999999991
2012-10-02,03:30,276.145,280.39166666666665,97.977666666666664,-8.0826666666666664,-9999.0,0.27333333333333337,-3.8836666666666662,2.66666666666666658E-003,-9999.0,279.90999999999991
2012-10-02,04:00,276.166,279.84366666666665,98.758333333333312,-8.1699999999999999,-9999.0,6.40000000000000013E-002,-3.7439999999999998,8.66666666666666627E-003,-9999.0,279.90999999999991
2012-10-02,04:30,276.187,279.58133333333336,99.107999999999976,-8.2113333333333323,-9999.0,9.96666666666666395E-002,-3.8363333333333336,4.66666666666666619E-003,-9999.0,279.90999999999991
2012-10-02,05:00,276.208,279.47866666666664,99.294000000000011,-9.1913043478260867,-9999.0,0.27266666666666672,-4.2093333333333334,6.33333333333333404E-003,-9999.0,279.90999999999991
2012-10-02,05:30,276.229,279.38766666666669,99.364666666666622,-9999.0,-9999.0,0.23300000000000004,-4.4843333333333337,2.49999999999999979E-002,-9999.0,279.90999999999991
2012-10-02,06:00,276.249,279.25999999999999,99.405333333333374,-9.7599999999999998,-9999.0,0.44399999999999995,-3.0250000000000004,3.2693333333333339,-9999.0,279.90999999999991
2012-10-02,06:30,276.270,278.86966666666672,99.380333333333354,-9.6246428571428577,-9999.0,7.1176666666666666,21.439666666666664,50.469666666666669,-9999.0,279.90999999999991
2012-10-02,07:00,276.291,279.05066666666676,99.025999999999968,-9999.0,-9999.0,22.615999999999996,103.63833333333334,209.10133333333334,-9999.0,279.90999999999991
2012-10-02,07:30,276.312,279.73833333333334,96.992666666666679,-9999.0,-9999.0,32.927999999999997,183.27933333333334,368.62533333333329,-9999.0,279.90999999999991
2012-10-02,08:00,276.333,280.42933333333337,90.713666666666683,-9999.0,-9999.0,46.168666666666660,269.57600000000002,522.81166666666672,-9999.0,279.90999999999991
2012-10-02,08:30,276.354,281.12366666666668,86.399000000000015,-9999.0,-9999.0,59.109999999999999,343.66399999999999,682.59599999999989,-9999.0,279.90999999999991
2012-10-02,09:00,276.374,281.92233333333331,81.914333333333332,-9999.0,-9999.0,68.698000000000008,424.09100000000007,832.66133333333346,-9999.0,279.90999999999991
2012-10-02,09:30,276.395,282.69300000000015,75.964333333333343,-9999.0,-9999.0,78.728333333333325,504.30800000000005,972.72633333333329,-9999.0,279.90999999999991
2012-10-02,10:00,276.416,283.68633333333332,65.048000000000002,-9999.0,-9999.0,87.819666666666677,564.01233333333346,1095.6899999999998,-9999.0,279.90999999999991
2012-10-02,10:30,276.437,284.39966666666663,57.362666666666662,-9.7149999999999999,-9999.0,94.251333333333321,616.78999999999985,1194.2720000000004,-9999.0,279.90999999999991
2012-10-02,11:00,276.458,285.50466666666671,47.420666666666662,-9999.0,-9999.0,98.970000000000013,651.62000000000000,1269.4613333333332,-9999.0,279.90999999999991
2012-10-02,11:30,276.479,286.64633333333330,45.994000000000007,-9999.0,-9999.0,101.57866666666668,670.09833333333347,1315.1073333333334,-9999.0,279.90999999999991
2012-10-02,12:00,276.499,286.80366666666669,44.033666666666683,-9999.0,-9999.0,101.94900000000003,675.31433333333337,1331.7136666666665,-9999.0,279.90999999999991
2012-10-02,12:30,276.520,287.52866666666665,39.471333333333327,-9.9600000000000009,-9999.0,102.66833333333334,669.48500000000001,1321.3129999999999,-9999.0,279.90999999999991
2012-10-02,13:00,276.541,287.71799999999996,34.118000000000002,-9999.0,-9999.0,99.692333333333337,647.53466666666668,1282.1376666666667,-9999.0,279.90999999999991
2012-10-02,13:30,276.562,288.04033333333342,29.391000000000002,-9999.0,-9999.0,94.845333333333343,611.83233333333339,1211.0146666666665,-9999.0,279.90999999999991
2012-10-02,14:00,276.583,288.30066666666670,29.559666666666665,-9.5580000000000016,-9999.0,89.247333333333344,563.72800000000018,1114.9820000000000,-9999.0,279.90999999999991
2012-10-02,14:30,276.604,288.54699999999997,31.612333333333343,-9999.0,-9999.0,81.679000000000016,505.14666666666676,996.81366666666668,-9999.0,279.90999999999991
2012-10-02,15:00,276.624,288.94800000000004,28.838333333333331,-9.6119999999999983,-9999.0,73.197333333333333,434.98533333333324,855.36133333333350,-9999.0,279.90999999999991
2012-10-02,15:30,276.645,289.51566666666662,28.552666666666664,-9999.0,-9999.0,63.385999999999996,355.09566666666672,697.13633333333337,-9999.0,279.90999999999991
2012-10-02,16:00,276.666,290.05233333333331,26.793000000000003,-9999.0,-9999.0,52.247666666666660,269.12700000000001,529.56299999999999,-9999.0,279.90999999999991
2012-10-02,16:30,276.687,289.82366666666661,25.676666666666669,-9999.0,-9999.0,39.399666666666668,183.73533333333336,358.89800000000002,-9999.0,279.90999999999991
2012-10-02,17:00,276.708,289.41900000000004,27.814666666666671,-9999.0,-9999.0,24.895333333333333,100.35633333333332,199.00966666666670,-9999.0,279.90999999999991
2012-10-02,17:30,276.729,288.75566666666674,30.062999999999995,-9999.0,-9999.0,9.9050000000000029,31.135666666666662,68.084666666666664,-9999.0,279.90999999999991
2012-10-02,18:00,276.749,288.08066666666662,31.665999999999997,-9999.0,-9999.0,0.32800000000000001,-3.9566666666666666,5.5533333333333328,-9999.0,279.90999999999991
2012-10-02,18:30,276.770,287.84866666666665,31.412999999999997,-9999.0,-9999.0,0.29399999999999998,-5.8683333333333341,4.26666666666666722E-002,-9999.0,279.90999999999991
2012-10-02,19:00,276.791,287.70033333333339,31.671000000000003,-9999.0,-9999.0,0.26666666666666666,-5.6229999999999993,3.66666666666666616E-003,-9999.0,279.90999999999991
2012-10-02,19:30,276.812,286.77599999999995,34.581333333333333,-9999.0,-9999.0,-0.20533333333333328,-5.7556666666666656,2.33333333333333353E-003,-9999.0,279.90999999999991
2012-10-02,20:00,276.833,286.59700000000004,33.493666666666662,-9999.0,-9999.0,0.30399999999999999,-5.1890000000000009,3.66666666666666660E-003,-9999.0,279.90999999999991
2012-10-02,20:30,276.854,285.59166666666675,40.176999999999992,-9999.0,-9999.0,-0.40566666666666668,-5.4356666666666653,2.66666666666666658E-003,-9999.0,279.90999999999991
2012-10-02,21:00,276.874,284.70366666666672,47.736666666666665,-9999.0,-9999.0,0.33633333333333332,-4.5943333333333349,2.99999999999999963E-003,-9999.0,279.90999999999991
2012-10-02,21:30,276.895,285.05966666666671,43.281999999999996,-9999.0,-9999.0,0.31566666666666671,-4.6516666666666673,4.00000000000000008E-003,-9999.0,279.90999999999991
2012-10-02,22:00,276.916,284.56533333333340,48.678666666666672,-9999.0,-9999.0,0.10833333333333335,-4.6036666666666672,3.33333333333333268E-003,-9999.0,279.90999999999991
2012-10-02,22:30,276.937,283.31099999999998,58.637333333333338,-9.3363157894736837,-9999.0,9.63333333333333264E-002,-4.4320000000000004,6.00000000000000012E-003,-9999.0,279.90999999999991
2012-10-02,23:00,276.958,282.67000000000007,67.867666666666665,-8.3176666666666659,-9999.0,0.29300000000000004,-4.0906666666666673,7.33333333333333580E-003,-9999.0,279.90999999999991
2012-10-02,23:30,276.979,282.17933333333337,75.729000000000028,-8.2003333333333330,-9999.0,0.28699999999999992,-4.0853333333333328,7.33333333333333406E-003,-9999.0,279.90999999999991
2012-10-03,00:00,277.000,281.80166666666668,81.843333333333334,-8.3043333333333340,-9999.0,0.39033333333333342,-4.0363333333333324,3.66666666666666660E-003,-9999.0,279.90999999999991
